�N����,����,�~����,�C��,���x,�C��,����,���ϕ���,�ő�u�ԕ���,�ő厞����,���˗�,�I�_���x,�n�����x,�ő啗���N��,DTYPE
"16/07/30","00:10",0.0,24.7,85.4,1006.9,314.4,0.2,0.9,339.6,0.00,22.1,27.2,"00:00:24",1
"16/07/30","00:20",0.0,24.8,85.7,1006.9,302.6,0.6,0.9,312.0,0.00,22.3,27.2,"00:18:16",1
"16/07/30","00:30",0.0,24.8,85.3,1006.7,305.5,0.6,1.1,324.7,0.00,22.2,27.3,"00:20:02",1
"16/07/30","00:40",0.0,24.8,84.6,1006.9,331.3,0.8,1.3,346.8,0.00,22.1,27.0,"00:33:04",1
"16/07/30","00:50",0.0,24.7,84.2,1007.1,309.2,0.6,0.9,341.2,0.00,21.9,27.2,"00:40:24",1
"16/07/30","01:00",0.0,24.5,85.0,1006.4,309.3,0.6,0.9,337.1,0.00,21.9,27.1,"00:58:24",1
"16/07/30","01:10",0.0,24.3,85.8,1006.9,305.6,0.6,0.9,336.2,0.00,21.8,27.0,"01:03:12",1
"16/07/30","01:20",0.0,24.1,86.0,1007.1,302.5,0.6,1.2,324.8,0.00,21.7,26.9,"01:10:16",1
"16/07/30","01:30",0.0,24.2,86.7,1006.7,305.4,0.6,1.1,332.0,0.00,21.9,26.8,"01:24:32",1
"16/07/30","01:40",0.0,24.0,87.3,1006.7,291.9,0.6,0.8,277.4,0.00,21.8,27.0,"01:32:56",1
"16/07/30","01:50",0.0,23.9,87.6,1006.9,288.0,0.6,1.0,244.5,0.00,21.8,26.6,"01:47:28",1
"16/07/30","02:00",0.0,23.9,87.7,1006.7,302.9,0.6,1.1,334.0,0.00,21.8,26.6,"01:54:32",1
"16/07/30","02:10",0.0,23.9,87.4,1007.1,312.0,0.6,1.3,356.5,0.00,21.7,26.6,"02:04:40",1
"16/07/30","02:20",0.0,23.9,87.1,1006.9,293.9,0.6,1.0,318.2,0.00,21.7,26.7,"02:16:56",1
"16/07/30","02:30",0.0,23.8,87.1,1006.9,288.7,0.6,0.9,306.7,0.00,21.6,26.7,"02:25:12",1
"16/07/30","02:40",0.0,23.7,87.5,1007.1,296.7,0.6,1.0,319.6,0.00,21.5,26.6,"02:33:36",1
"16/07/30","02:50",0.0,23.6,87.6,1006.9,301.2,0.6,1.0,323.5,0.00,21.5,26.7,"02:44:24",1
"16/07/30","03:00",0.0,23.5,88.0,1006.9,293.8,0.6,0.9,315.6,0.00,21.4,26.6,"02:57:28",1
"16/07/30","03:10",0.0,23.4,88.6,1007.1,288.5,0.6,0.8,304.8,0.00,21.4,26.3,"03:00:08",1
"16/07/30","03:20",0.0,23.5,88.9,1007.1,301.1,0.7,1.2,324.2,0.00,21.6,26.1,"03:14:00",1
"16/07/30","03:30",0.0,23.5,88.7,1007.1,296.6,0.7,1.1,322.8,0.00,21.6,26.3,"03:24:32",1
"16/07/30","03:40",0.0,23.5,88.3,1006.9,290.9,0.6,0.9,309.2,0.00,21.5,26.2,"03:33:44",1
"16/07/30","03:50",0.0,23.4,88.6,1007.1,289.6,0.7,0.8,285.6,0.00,21.4,26.2,"03:40:16",1
"16/07/30","04:00",0.0,23.2,88.9,1006.9,287.2,0.7,1.0,302.8,0.00,21.3,25.9,"03:53:12",1
"16/07/30","04:10",0.0,23.1,89.1,1006.9,292.7,0.7,1.0,309.2,0.00,21.2,26.1,"04:04:16",1
"16/07/30","04:20",0.0,23.0,89.5,1006.9,287.0,0.7,1.3,308.7,0.00,21.2,26.1,"04:17:28",1
"16/07/30","04:30",0.0,22.9,89.9,1006.9,281.0,0.7,1.1,308.3,0.00,21.2,26.1,"04:23:28",1
"16/07/30","04:40",0.0,23.0,89.9,1007.1,281.6,0.7,1.0,297.3,0.00,21.3,26.0,"04:36:48",1
"16/07/30","04:50",0.0,22.9,90.1,1007.4,290.0,0.8,1.0,299.9,0.00,21.2,25.9,"04:45:20",1
"16/07/30","05:00",0.0,23.0,90.2,1007.6,287.4,0.7,1.1,265.9,0.00,21.3,25.9,"04:53:52",1
"16/07/30","05:10",0.0,23.0,90.4,1007.4,320.7,0.8,1.3,332.9,0.00,21.4,25.9,"05:04:40",1
"16/07/30","05:20",0.0,23.0,90.6,1007.8,298.1,1.0,1.6,321.8,0.00,21.4,25.8,"05:18:48",1
"16/07/30","05:30",0.0,22.9,91.1,1007.6,296.0,1.0,1.7,323.7,0.00,21.4,25.7,"05:21:04",1
"16/07/30","05:40",0.0,22.9,91.4,1008.1,289.2,0.8,0.9,283.6,0.00,21.5,25.8,"05:30:32",1
"16/07/30","05:50",0.0,22.9,91.8,1007.8,293.3,0.7,1.1,311.1,0.00,21.5,25.7,"05:44:16",1
"16/07/30","06:00",0.0,22.9,91.6,1008.1,302.7,0.7,1.2,320.4,0.00,21.5,25.9,"05:58:48",1
"16/07/30","06:10",0.0,23.0,91.6,1008.1,287.6,0.6,0.8,264.1,0.00,21.6,25.6,"06:04:56",1
"16/07/30","06:20",0.0,23.3,91.4,1007.8,304.4,0.6,0.9,311.2,0.01,21.9,25.8,"06:12:32",1
"16/07/30","06:30",0.0,23.5,91.1,1008.1,302.2,0.5,0.9,323.3,0.01,22.0,25.7,"06:23:12",1
"16/07/30","06:40",0.0,24.4,89.2,1008.1,321.2,0.5,1.2,337.2,0.05,22.5,25.5,"06:37:28",1
"16/07/30","06:50",0.0,25.7,82.5,1008.1,8.3,0.5,1.1,353.9,0.07,22.5,25.7,"06:41:12",1
"16/07/30","07:00",0.0,26.6,79.5,1008.1,38.8,0.2,0.9,343.2,0.09,22.8,26.1,"06:50:08",1
"16/07/30","07:10",0.0,27.4,76.8,1008.1,38.5,0.2,0.9,13.9,0.11,23.0,25.8,"07:04:00",1
"16/07/30","07:20",0.0,27.7,76.3,1008.1,103.9,0.3,0.9,175.9,0.14,23.2,26.1,"07:16:56",1
"16/07/30","07:30",0.0,27.8,74.3,1007.4,160.4,0.5,1.1,122.6,0.16,22.8,26.0,"07:26:32",1
"16/07/30","07:40",0.0,28.3,72.1,1007.4,120.8,0.6,1.4,90.1,0.19,22.8,26.3,"07:39:04",1
"16/07/30","07:50",0.0,28.8,70.4,1007.6,130.6,0.2,1.4,5.8,0.20,22.9,26.3,"07:40:16",1
"16/07/30","08:00",0.0,29.4,69.3,1008.1,114.3,0.1,0.9,60.3,0.23,23.2,26.4,"07:55:52",1
"16/07/30","08:10",0.0,29.2,67.0,1008.3,77.6,0.8,2.0,356.3,0.26,22.5,26.7,"08:09:20",1
"16/07/30","08:20",0.0,29.6,69.5,1008.3,102.5,0.8,1.9,117.0,0.28,23.5,26.9,"08:15:28",1
"16/07/30","08:30",0.0,29.7,65.2,1008.6,57.3,1.1,2.1,55.8,0.32,22.5,27.0,"08:24:40",1
"16/07/30","08:40",0.0,30.3,62.4,1008.8,128.2,0.7,1.6,149.5,0.34,22.4,27.2,"08:32:24",1
"16/07/30","08:50",0.0,29.9,64.4,1009.0,168.1,1.0,2.0,170.9,0.31,22.5,27.2,"08:46:08",1
"16/07/30","09:00",0.0,29.4,65.4,1008.8,90.3,0.7,1.7,87.4,0.17,22.3,27.2,"08:52:32",1
"16/07/30","09:10",0.0,29.4,65.0,1008.6,30.2,1.0,2.2,352.8,0.21,22.2,27.5,"09:05:36",1
"16/07/30","09:20",0.0,30.1,62.8,1008.6,83.1,0.7,1.7,10.5,0.27,22.3,27.7,"09:14:08",1
"16/07/30","09:30",0.0,30.1,64.0,1009.0,32.3,0.7,2.0,1.7,0.25,22.6,27.6,"09:23:20",1
"16/07/30","09:40",0.0,30.4,64.4,1009.0,135.9,0.8,1.9,153.4,0.31,23.0,27.9,"09:35:28",1
"16/07/30","09:50",0.0,31.1,58.3,1009.3,69.3,0.8,1.9,45.2,0.43,22.0,28.0,"09:42:08",1
"16/07/30","10:00",0.0,31.4,57.5,1009.0,88.3,0.8,2.4,36.0,0.46,22.0,28.2,"09:52:16",1
"16/07/30","10:10",0.0,32.0,61.9,1009.5,41.9,0.6,1.8,357.5,0.46,23.8,28.4,"10:05:20",1
"16/07/30","10:20",0.0,32.0,59.9,1009.7,12.8,0.6,2.0,2.3,0.44,23.3,28.4,"10:15:36",1
"16/07/30","10:30",0.0,32.0,54.1,1009.7,107.6,0.8,1.7,348.7,0.51,21.6,28.8,"10:22:32",1
"16/07/30","10:40",0.0,32.4,55.2,1010.0,106.4,0.7,2.0,2.8,0.53,22.3,28.8,"10:34:40",1
"16/07/30","10:50",0.0,32.8,51.5,1010.0,48.1,1.0,2.8,21.3,0.57,21.5,29.3,"10:46:40",1
"16/07/30","11:00",0.0,32.8,50.9,1009.5,37.3,1.2,2.8,353.2,0.53,21.3,29.5,"10:54:16",1
"16/07/30","11:10",0.0,32.9,50.3,1009.3,26.7,1.2,2.5,17.9,0.53,21.2,29.8,"11:08:56",1
"16/07/30","11:20",0.0,33.0,50.7,1009.3,32.9,1.1,2.9,345.9,0.49,21.5,29.9,"11:15:52",1
"16/07/30","11:30",0.0,33.1,47.8,1009.3,75.9,1.0,3.2,343.8,0.55,20.6,30.2,"11:25:28",1
"16/07/30","11:40",0.0,33.8,51.0,1009.3,96.3,0.6,1.8,109.9,0.57,22.3,30.2,"11:34:40",1
"16/07/30","11:50",0.0,33.4,48.8,1009.3,159.6,1.3,2.5,175.9,0.57,21.2,30.7,"11:47:28",1
"16/07/30","12:00",0.0,33.3,48.8,1009.0,213.1,1.3,3.7,218.9,0.57,21.1,30.7,"11:54:40",1
"16/07/30","12:10",0.0,33.6,44.0,1009.0,151.7,1.2,3.9,190.0,0.57,19.7,31.0,"12:09:04",1
"16/07/30","12:20",0.0,33.4,44.8,1008.6,170.6,2.0,3.9,228.2,0.57,19.8,31.2,"12:12:32",1
"16/07/30","12:30",0.0,34.0,47.2,1008.3,190.4,1.3,3.1,197.0,0.57,21.2,31.3,"12:29:36",1
"16/07/30","12:40",0.0,33.4,47.1,1008.1,157.1,1.2,3.7,202.8,0.46,20.6,31.4,"12:30:32",1
"16/07/30","12:50",0.0,33.8,46.8,1008.3,157.3,1.5,3.1,197.0,0.57,20.9,31.6,"12:40:02",1
"16/07/30","13:00",0.0,34.0,44.7,1008.1,186.4,2.0,3.4,175.5,0.57,20.3,31.5,"12:52:56",1
"16/07/30","13:10",0.0,34.3,42.9,1008.1,145.3,1.0,2.2,132.8,0.56,19.9,31.7,"13:02:56",1
"16/07/30","13:20",0.0,34.2,47.5,1008.6,151.2,1.2,2.8,222.5,0.56,21.5,31.7,"13:18:08",1
"16/07/30","13:30",0.0,34.0,44.1,1007.6,138.8,1.3,3.7,139.2,0.55,20.1,31.4,"13:25:44",1
"16/07/30","13:40",0.0,34.6,47.9,1008.3,160.4,1.1,3.4,224.5,0.54,22.0,31.6,"13:34:24",1
"16/07/30","13:50",0.0,35.1,43.1,1008.3,165.2,1.1,2.5,200.0,0.53,20.7,31.3,"13:45:12",1
"16/07/30","14:00",0.0,34.7,46.2,1008.3,153.8,1.1,2.7,212.4,0.52,21.5,31.4,"13:53:44",1
"16/07/30","14:10",0.0,34.9,45.7,1008.6,166.4,1.3,3.3,215.4,0.51,21.5,31.6,"14:07:04",1
"16/07/30","14:20",0.0,35.1,43.2,1007.8,163.0,1.5,3.3,135.5,0.47,20.8,31.5,"14:10:56",1
"16/07/30","14:30",0.0,35.1,44.0,1008.1,172.0,1.3,2.9,221.8,0.46,21.1,31.6,"14:23:12",1
"16/07/30","14:40",0.0,34.4,43.5,1007.4,156.2,1.5,3.7,147.7,0.41,20.2,31.8,"14:34:32",1
"16/07/30","14:50",0.0,35.5,41.7,1007.1,144.9,1.1,2.6,134.0,0.46,20.5,31.9,"14:42:24",1
"16/07/30","15:00",0.0,34.5,45.0,1007.4,184.0,1.6,3.7,223.9,0.37,20.9,31.8,"14:51:52",1
"16/07/30","15:10",0.0,33.5,42.2,1007.4,136.6,1.0,2.7,114.6,0.26,18.9,32.0,"15:01:36",1
"16/07/30","15:20",0.0,33.9,45.9,1006.9,190.2,0.8,3.3,170.5,0.21,20.7,31.9,"15:19:28",1
"16/07/30","15:30",0.0,34.4,43.3,1006.7,226.9,1.0,3.4,202.6,0.28,20.2,31.9,"15:22:08",1
"16/07/30","15:40",0.0,34.8,46.4,1006.4,187.7,1.5,3.7,212.5,0.34,21.7,31.7,"15:36:00",1
"16/07/30","15:50",0.0,35.0,42.4,1006.2,196.6,2.1,4.1,226.5,0.31,20.4,31.9,"15:46:32",1
"16/07/30","16:00",0.0,34.8,44.3,1006.0,197.8,2.0,3.4,193.0,0.29,20.9,31.9,"15:54:48",1
"16/07/30","16:10",0.0,34.4,43.8,1005.5,194.5,2.2,3.5,168.3,0.28,20.4,31.6,"16:01:28",1
"16/07/30","16:20",0.0,34.1,44.6,1005.2,199.7,1.7,3.4,215.7,0.16,20.4,31.5,"16:13:20",1
"16/07/30","16:30",0.0,33.5,48.0,1005.5,149.7,1.2,3.4,229.1,0.16,21.0,31.6,"16:20:08",1
"16/07/30","16:40",0.0,33.6,49.2,1005.5,143.0,1.2,3.5,132.0,0.17,21.5,31.4,"16:34:32",1
"16/07/30","16:50",0.0,33.3,48.0,1005.5,155.0,0.8,1.7,125.7,0.08,20.8,31.2,"16:40:56",1
"16/07/30","17:00",0.0,33.3,49.7,1005.2,106.5,0.3,1.2,23.5,0.06,21.4,31.1,"16:57:12",1
"16/07/30","17:10",0.0,33.3,47.7,1004.8,58.8,0.8,2.0,91.8,0.05,20.7,30.9,"17:00:24",1
"16/07/30","17:20",0.0,33.3,48.6,1004.8,79.7,0.7,2.0,5.5,0.05,21.0,30.9,"17:18:00",1
"16/07/30","17:30",0.0,33.2,48.3,1004.8,51.0,0.8,2.1,340.5,0.03,20.9,30.9,"17:25:52",1
"16/07/30","17:40",0.0,33.0,47.7,1004.8,121.6,0.7,3.2,122.0,0.02,20.5,30.8,"17:31:36",1
"16/07/30","17:50",0.0,32.8,48.4,1004.3,68.7,0.7,2.1,129.7,0.02,20.5,30.8,"17:45:52",1
"16/07/30","18:00",0.0,32.6,48.8,1004.3,45.8,0.6,1.9,6.7,0.01,20.5,30.3,"17:51:04",1
"16/07/30","18:10",0.0,32.4,49.2,1004.5,54.0,0.6,1.3,81.3,0.01,20.4,30.3,"18:01:12",1
"16/07/30","18:20",0.0,32.0,49.6,1004.3,36.7,0.7,2.2,100.4,0.00,20.2,30.4,"18:19:04",1
"16/07/30","18:30",0.0,31.6,51.5,1004.3,19.6,0.6,1.8,352.3,0.00,20.4,30.2,"18:22:40",1
"16/07/30","18:40",0.0,30.7,56.0,1004.1,351.0,0.3,1.3,350.1,0.00,21.0,30.1,"18:31:20",1
"16/07/30","18:50",0.0,29.8,59.1,1004.3,242.8,0.1,0.6,5.9,0.00,21.0,29.7,"18:44:00",1
"16/07/30","19:00",0.0,29.3,61.8,1003.8,343.3,0.1,0.9,351.0,0.00,21.3,29.7,"18:50:02",1
"16/07/30","19:10",0.0,28.8,63.6,1003.6,345.0,0.2,1.2,12.3,0.00,21.3,29.6,"19:07:12",1
"16/07/30","19:20",0.0,28.5,65.0,1004.3,291.9,0.1,0.5,306.9,0.00,21.3,29.4,"19:15:36",1
"16/07/30","19:30",0.0,28.1,66.2,1004.5,289.5,0.2,0.8,331.0,0.00,21.2,29.3,"19:25:52",1
"16/07/30","19:40",0.0,27.7,67.9,1004.5,290.4,0.2,0.5,292.5,0.00,21.3,29.2,"19:30:48",1
"16/07/30","19:50",0.0,27.5,68.8,1004.5,310.6,0.5,1.2,339.8,0.00,21.3,29.2,"19:49:44",1
"16/07/30","20:00",0.0,27.3,70.0,1004.8,323.1,0.6,1.4,358.2,0.00,21.4,29.1,"19:58:48",1
"16/07/30","20:10",0.0,27.1,70.8,1005.0,291.8,0.3,1.0,314.3,0.00,21.4,28.9,"20:00:16",1
"16/07/30","20:20",0.0,26.7,71.0,1005.2,307.7,0.3,1.0,354.6,0.00,21.0,29.0,"20:15:36",1
"16/07/30","20:30",0.0,26.5,71.3,1005.5,309.4,0.5,1.1,340.6,0.00,20.9,28.7,"20:28:48",1
"16/07/30","20:40",0.0,26.5,73.0,1005.7,327.1,0.7,1.1,329.0,0.00,21.3,28.7,"20:34:48",1
"16/07/30","20:50",0.0,26.3,74.8,1005.5,284.4,0.3,0.9,341.7,0.00,21.5,28.4,"20:47:44",1
"16/07/30","21:00",0.0,26.1,76.9,1005.7,329.1,0.7,1.2,353.1,0.00,21.8,28.4,"20:55:44",1
"16/07/30","21:10",0.0,25.7,77.3,1006.0,300.2,0.6,1.6,345.2,0.00,21.5,28.4,"21:00:24",1
"16/07/30","21:20",0.0,25.6,78.7,1006.0,333.8,0.5,1.2,343.7,0.00,21.7,28.4,"21:19:44",1
"16/07/30","21:30",0.0,25.5,79.5,1006.0,312.9,0.6,1.3,339.9,0.00,21.7,28.2,"21:20:16",1
"16/07/30","21:40",0.0,25.2,78.4,1005.7,311.6,0.2,0.8,302.6,0.00,21.2,28.2,"21:36:40",1
"16/07/30","21:50",0.0,25.3,77.6,1005.5,292.7,0.5,1.3,230.9,0.00,21.1,28.1,"21:43:36",1
"16/07/30","22:00",0.0,25.4,77.5,1006.0,310.9,0.6,1.1,340.7,0.00,21.2,28.0,"21:53:36",1
"16/07/30","22:10",0.0,25.3,78.2,1006.0,321.7,0.6,1.0,320.9,0.00,21.3,27.7,"22:00:56",1
"16/07/30","22:20",0.0,25.4,78.7,1005.7,326.2,0.6,1.8,341.9,0.00,21.5,28.0,"22:11:20",1
"16/07/30","22:30",0.0,25.2,79.8,1006.0,292.9,0.5,0.8,309.1,0.00,21.5,27.8,"22:27:12",1
"16/07/30","22:40",0.0,24.9,79.6,1006.2,289.1,0.5,0.6,306.9,0.00,21.2,27.7,"22:32:32",1
"16/07/30","22:50",0.0,24.7,79.6,1006.0,309.5,0.5,0.9,329.5,0.00,21.0,27.7,"22:43:28",1
"16/07/30","23:00",0.0,24.5,80.1,1006.2,302.1,0.5,0.8,313.7,0.00,20.9,27.6,"22:52:48",1
"16/07/30","23:10",0.0,24.5,80.4,1006.0,294.7,0.5,0.8,319.6,0.00,20.9,27.5,"23:00:02",1
"16/07/30","23:20",0.0,24.4,81.0,1006.2,300.0,0.6,1.1,326.9,0.00,21.0,27.3,"23:10:48",1
"16/07/30","23:30",0.0,24.2,81.9,1006.4,295.9,0.6,1.0,349.0,0.00,21.0,27.3,"23:22:48",1
"16/07/30","23:40",0.0,24.2,83.2,1006.4,279.7,0.6,0.8,305.9,0.00,21.2,27.2,"23:30:32",1
"16/07/30","23:50",0.0,24.0,82.7,1006.4,294.4,0.6,1.1,326.2,0.00,20.9,27.5,"23:41:04",1
"16/07/30","24:00",0.0,24.0,83.5,1006.2,313.9,0.7,1.3,336.5,0.00,21.1,27.0,"23:59:20",1
